#Datum;Uhrzeit;WR;Pac;DaySum;Status;WR;Pac;DaySum;Status;Pdc1;Udc;Temp;WR;Pac;DaySum;Status;Pdc1;Udc;Temp;WR;Pac;DaySum;Status;Pdc1;Udc;Temp;WR;Pac;DaySum;Status;Pdc1;Pdc2;Udc1;Udc2;Temp;WR;Pac;DaySum;Status;Pdc1;Pdc2;Udc1;Udc2;Temp;WR;Pac;DaySum;Status;Pdc1;Udc;Temp;WR;Pac;DaySum;Status;Pdc1;Udc;Temp;WR;Pac;DaySum;Status;Pdc1;Udc;Temp
23.01.19;23:55:00;1;253;11536;0;2;0;3725;0;0;0;0;3;0;2287;0;0;0;0;4;0;3200;0;0;0;0;5;0;8160;0;0;0;0;0;0;6;0;5886;0;0;0;0;0;0;7;0;4125;0;0;0;0;8;0;4114;0;0;0;0;9;0;2213;0;0;0;0
23.01.19;23:50:00;1;271;11514;0;2;0;3725;0;0;0;0;3;0;2287;0;0;0;0;4;0;3200;0;0;0;0;5;0;8160;0;0;0;0;0;0;6;0;5886;0;0;0;0;0;0;7;0;4125;0;0;0;0;8;0;4114;0;0;0;0;9;0;2213;0;0;0;0
23.01.19;23:45:00;1;273;11492;0;2;0;3725;0;0;0;0;3;0;2287;0;0;0;0;4;0;3200;0;0;0;0;5;0;8160;0;0;0;0;0;0;6;0;5886;0;0;0;0;0;0;7;0;4125;0;0;0;0;8;0;4114;0;0;0;0;9;0;2213;0;0;0;0
23.01.19;23:40:00;1;443;11469;0;2;0;3725;0;0;0;0;3;0;2287;0;0;0;0;4;0;3200;0;0;0;0;5;0;8160;0;0;0;0;0;0;6;0;5886;0;0;0;0;0;0;7;0;4125;0;0;0;0;8;0;4114;0;0;0;0;9;0;2213;0;0;0;0
23.01.19;23:35:00;1;294;11422;0;2;0;3725;0;0;0;0;3;0;2287;0;0;0;0;4;0;3200;0;0;0;0;5;0;8160;0;0;0;0;0;0;6;0;5886;0;0;0;0;0;0;7;0;4125;0;0;0;0;8;0;4114;0;0;0;0;9;0;2213;0;0;0;0
23.01.19;23:30:00;1;296;11397;0;2;0;3725;0;0;0;0;3;0;2287;0;0;0;0;4;0;3200;0;0;0;0;5;0;8160;0;0;0;0;0;0;6;0;5886;0;0;0;0;0;0;7;0;4125;0;0;0;0;8;0;4114;0;0;0;0;9;0;2213;0;0;0;0
23.01.19;23:25:00;1;505;11372;0;2;0;3725;0;0;0;0;3;0;2287;0;0;0;0;4;0;3200;0;0;0;0;5;0;8160;0;0;0;0;0;0;6;0;5886;0;0;0;0;0;0;7;0;4125;0;0;0;0;8;0;4114;0;0;0;0;9;0;2213;0;0;0;0
23.01.19;23:20:00;1;252;11325;0;2;0;3725;0;0;0;0;3;0;2287;0;0;0;0;4;0;3200;0;0;0;0;5;0;8160;0;0;0;0;0;0;6;0;5886;0;0;0;0;0;0;7;0;4125;0;0;0;0;8;0;4114;0;0;0;0;9;0;2213;0;0;0;0
23.01.19;23:15:00;1;253;11304;0;2;0;3725;0;0;0;0;3;0;2287;0;0;0;0;4;0;3200;0;0;0;0;5;0;8160;0;0;0;0;0;0;6;0;5886;0;0;0;0;0;0;7;0;4125;0;0;0;0;8;0;4114;0;0;0;0;9;0;2213;0;0;0;0
23.01.19;23:10:00;1;254;11283;0;2;0;3725;0;0;0;0;3;0;2287;0;0;0;0;4;0;3200;0;0;0;0;5;0;8160;0;0;0;0;0;0;6;0;5886;0;0;0;0;0;0;7;0;4125;0;0;0;0;8;0;4114;0;0;0;0;9;0;2213;0;0;0;0
23.01.19;23:05:00;1;681;11261;0;2;0;3725;0;0;0;0;3;0;2287;0;0;0;0;4;0;3200;0;0;0;0;5;0;8160;0;0;0;0;0;0;6;0;5886;0;0;0;0;0;0;7;0;4125;0;0;0;0;8;0;4114;0;0;0;0;9;0;2213;0;0;0;0
23.01.19;23:00:00;1;267;11215;0;2;0;3725;0;0;0;0;3;0;2287;0;0;0;0;4;0;3200;0;0;0;0;5;0;8160;0;0;0;0;0;0;6;0;5886;0;0;0;0;0;0;7;0;4125;0;0;0;0;8;0;4114;0;0;0;0;9;0;2213;0;0;0;0
23.01.19;22:55:00;1;291;11193;0;2;0;3725;0;0;0;0;3;0;2287;0;0;0;0;4;0;3200;0;0;0;0;5;0;8160;2;0;0;0;0;0;6;0;5886;2;0;0;0;0;0;7;0;4125;0;0;0;0;8;0;4114;0;0;0;0;9;0;2213;0;0;0;0
23.01.19;22:50:00;1;657;11168;0;2;0;3725;0;0;0;0;3;0;2287;0;0;0;0;4;0;3200;0;0;0;0;5;0;8160;2;0;0;0;0;0;6;0;5886;2;0;0;0;0;0;7;0;4125;0;0;0;0;8;0;4114;0;0;0;0;9;0;2213;0;0;0;0
23.01.19;22:45:00;1;254;11121;0;2;0;3725;0;0;0;0;3;0;2287;0;0;0;0;4;0;3200;0;0;0;0;5;0;8160;2;0;0;0;0;0;6;0;5886;2;0;0;0;0;0;7;0;4125;0;0;0;0;8;0;4114;0;0;0;0;9;0;2213;0;0;0;0
23.01.19;22:40:00;1;268;11100;0;2;0;3725;0;0;0;0;3;0;2287;0;0;0;0;4;0;3200;0;0;0;0;5;0;8160;2;0;0;0;0;0;6;0;5886;2;0;0;0;0;0;7;0;4125;0;0;0;0;8;0;4114;0;0;0;0;9;0;2213;0;0;0;0
23.01.19;22:35:00;1;342;11077;0;2;0;3725;0;0;0;0;3;0;2287;0;0;0;0;4;0;3200;0;0;0;0;5;0;8160;2;0;0;0;0;0;6;0;5886;2;0;0;0;0;0;7;0;4125;0;0;0;0;8;0;4114;0;0;0;0;9;0;2213;0;0;0;0
23.01.19;22:30:00;1;756;11038;0;2;0;3725;0;0;0;0;3;0;2287;0;0;0;0;4;0;3200;0;0;0;0;5;0;8160;2;0;0;0;0;0;6;0;5886;2;0;0;0;0;0;7;0;4125;0;0;0;0;8;0;4114;0;0;0;0;9;0;2213;0;0;0;0
23.01.19;22:25:00;1;320;10987;0;2;0;3725;0;0;0;0;3;0;2287;0;0;0;0;4;0;3200;0;0;0;0;5;0;8160;2;0;0;0;0;0;6;0;5886;2;0;0;0;0;0;7;0;4125;0;0;0;0;8;0;4114;0;0;0;0;9;0;2213;0;0;0;0
23.01.19;22:20:00;1;290;10961;0;2;0;3725;0;0;0;0;3;0;2287;0;0;0;0;4;0;3200;0;0;0;0;5;0;8160;2;0;0;0;0;0;6;0;5886;2;0;0;0;0;0;7;0;4125;0;0;0;0;8;0;4114;0;0;0;0;9;0;2213;0;0;0;0
23.01.19;22:15:00;1;693;10936;0;2;0;3725;0;0;0;0;3;0;2287;0;0;0;0;4;0;3200;0;0;0;0;5;0;8160;2;0;0;0;0;0;6;0;5886;2;0;0;0;0;0;7;0;4125;0;0;0;0;8;0;4114;0;0;0;0;9;0;2213;0;0;0;0
23.01.19;22:10:00;1;273;10887;0;2;0;3725;0;0;0;0;3;0;2287;0;0;0;0;4;0;3200;0;0;0;0;5;0;8160;2;0;0;0;0;0;6;0;5886;2;0;0;0;0;0;7;0;4125;0;0;0;0;8;0;4114;0;0;0;0;9;0;2213;0;0;0;0
23.01.19;22:05:00;1;273;10864;0;2;0;3725;0;0;0;0;3;0;2287;0;0;0;0;4;0;3200;0;0;0;0;5;0;8160;2;0;0;0;0;0;6;0;5886;2;0;0;0;0;0;7;0;4125;0;0;0;0;8;0;4114;0;0;0;0;9;0;2213;0;0;0;0
23.01.19;22:00:00;1;260;10841;0;2;0;3725;0;0;0;0;3;0;2287;0;0;0;0;4;0;3200;0;0;0;0;5;0;8160;2;0;0;0;0;0;6;0;5886;2;0;0;0;0;0;7;0;4125;0;0;0;0;8;0;4114;0;0;0;0;9;0;2213;0;0;0;0
23.01.19;21:55:00;1;421;10804;0;2;0;3725;0;0;0;0;3;0;2287;0;0;0;0;4;0;3200;0;0;0;0;5;0;8160;2;0;0;0;0;0;6;0;5886;2;0;0;0;0;0;7;0;4125;0;0;0;0;8;0;4114;0;0;0;0;9;0;2213;0;0;0;0
23.01.19;21:50:00;1;217;10777;0;2;0;3725;0;0;0;0;3;0;2287;0;0;0;0;4;0;3200;0;0;0;0;5;0;8160;2;0;0;0;0;0;6;0;5886;2;0;0;0;0;0;7;0;4125;0;0;0;0;8;0;4114;0;0;0;0;9;0;2213;0;0;0;0
23.01.19;21:45:00;1;227;10759;0;2;0;3725;0;0;0;0;3;0;2287;0;0;0;0;4;0;3200;0;0;0;0;5;0;8160;2;0;0;0;0;0;6;0;5886;2;0;0;0;0;0;7;0;4125;0;0;0;0;8;0;4114;0;0;0;0;9;0;2213;0;0;0;0
23.01.19;21:40:00;1;620;10740;0;2;0;3725;0;0;0;0;3;0;2287;0;0;0;0;4;0;3200;0;0;0;0;5;0;8160;2;0;0;0;0;0;6;0;5886;2;0;0;0;0;0;7;0;4125;0;0;0;0;8;0;4114;0;0;0;0;9;0;2213;0;0;0;0
23.01.19;21:35:00;1;267;10693;0;2;0;3725;0;0;0;0;3;0;2287;0;0;0;0;4;0;3200;0;0;0;0;5;0;8160;2;0;0;0;0;0;6;0;5886;2;0;0;0;0;0;7;0;4125;0;0;0;0;8;0;4114;0;0;0;0;9;0;2213;0;0;0;0
23.01.19;21:30:00;1;296;10670;0;2;0;3725;0;0;0;0;3;0;2287;0;0;0;0;4;0;3200;0;0;0;0;5;0;8160;2;0;0;0;0;0;6;0;5886;2;0;0;0;0;0;7;0;4125;0;0;0;0;8;0;4114;0;0;0;0;9;0;2213;0;0;0;0
23.01.19;21:25:00;1;215;10649;0;2;0;3725;0;0;0;0;3;0;2287;0;0;0;0;4;0;3200;0;0;0;0;5;0;8160;2;0;0;0;0;0;6;0;5886;2;0;0;0;0;0;7;0;4125;0;0;0;0;8;0;4114;0;0;0;0;9;0;2213;0;0;0;0
23.01.19;21:20:00;1;572;10619;0;2;0;3725;0;0;0;0;3;0;2287;0;0;0;0;4;0;3200;0;0;0;0;5;0;8160;2;0;0;0;0;0;6;0;5886;2;0;0;0;0;0;7;0;4125;0;0;0;0;8;0;4114;0;0;0;0;9;0;2213;0;0;0;0
23.01.19;21:15:00;1;215;10588;0;2;0;3725;0;0;0;0;3;0;2287;0;0;0;0;4;0;3200;0;0;0;0;5;0;8160;2;0;0;0;0;0;6;0;5886;2;0;0;0;0;0;7;0;4125;0;0;0;0;8;0;4114;0;0;0;0;9;0;2213;0;0;0;0
23.01.19;21:10:00;1;214;10570;0;2;0;3725;0;0;0;0;3;0;2287;0;0;0;0;4;0;3200;0;0;0;0;5;0;8160;2;0;0;0;0;0;6;0;5886;2;0;0;0;0;0;7;0;4125;0;0;0;0;8;0;4114;0;0;0;0;9;0;2213;0;0;0;0
23.01.19;21:05:00;1;424;10552;0;2;0;3725;0;0;0;0;3;0;2287;0;0;0;0;4;0;3200;0;0;0;0;5;0;8160;2;0;0;0;0;0;6;0;5886;2;0;0;0;0;0;7;0;4125;0;0;0;0;8;0;4114;0;0;0;0;9;0;2213;0;0;0;0
23.01.19;21:00:00;1;234;10508;0;2;0;3725;0;0;0;0;3;0;2287;0;0;0;0;4;0;3200;0;0;0;0;5;0;8160;2;0;0;0;0;0;6;0;5886;2;0;0;0;0;0;7;0;4125;0;0;0;0;8;0;4114;0;0;0;0;9;0;2213;0;0;0;0
23.01.19;20:55:00;1;231;10489;0;2;0;3725;0;0;0;0;3;0;2287;0;0;0;0;4;0;3200;0;0;0;0;5;0;8160;2;0;0;0;0;0;6;0;5886;2;0;0;0;0;0;7;0;4125;0;0;0;0;8;0;4114;0;0;0;0;9;0;2213;0;0;0;0
23.01.19;20:50:00;1;218;10469;0;2;0;3725;0;0;0;0;3;0;2287;0;0;0;0;4;0;3200;0;0;0;0;5;0;8160;2;0;0;0;0;0;6;0;5886;2;0;0;0;0;0;7;0;4125;0;0;0;0;8;0;4114;0;0;0;0;9;0;2213;0;0;0;0
23.01.19;20:45:00;1;543;10451;0;2;0;3725;0;0;0;0;3;0;2287;0;0;0;0;4;0;3200;0;0;0;0;5;0;8160;2;0;0;0;0;0;6;0;5886;2;0;0;0;0;0;7;0;4125;0;0;0;0;8;0;4114;0;0;0;0;9;0;2213;0;0;0;0
23.01.19;20:40:00;1;249;10408;0;2;0;3725;0;0;0;0;3;0;2287;0;0;0;0;4;0;3200;0;0;0;0;5;0;8160;2;0;0;0;0;0;6;0;5886;2;0;0;0;0;0;7;0;4125;0;0;0;0;8;0;4114;0;0;0;0;9;0;2213;0;0;0;0
23.01.19;20:35:00;1;263;10387;0;2;0;3725;0;0;0;0;3;0;2287;0;0;0;0;4;0;3200;0;0;0;0;5;0;8160;2;0;0;0;0;0;6;0;5886;2;0;0;0;0;0;7;0;4125;0;0;0;0;8;0;4114;0;0;0;0;9;0;2213;0;0;0;0
23.01.19;20:30:00;1;273;10365;0;2;0;3725;0;0;0;0;3;0;2287;0;0;0;0;4;0;3200;0;0;0;0;5;0;8160;2;0;0;0;0;0;6;0;5886;2;0;0;0;0;0;7;0;4125;0;0;0;0;8;0;4114;0;0;0;0;9;0;2213;0;0;0;0
23.01.19;20:25:00;1;472;10342;0;2;0;3725;0;0;0;0;3;0;2287;0;0;0;0;4;0;3200;0;0;0;0;5;0;8160;2;0;0;0;0;0;6;0;5886;2;0;0;0;0;0;7;0;4125;0;0;0;0;8;0;4114;0;0;0;0;9;0;2213;0;0;0;0
23.01.19;20:20:00;1;462;10295;0;2;0;3725;0;0;0;0;3;0;2287;0;0;0;0;4;0;3200;0;0;0;0;5;0;8160;2;0;0;0;0;0;6;0;5886;2;0;0;0;0;0;7;0;4125;0;0;0;0;8;0;4114;0;0;0;0;9;0;2213;0;0;0;0
23.01.19;20:15:00;1;579;10253;0;2;0;3725;0;0;0;0;3;0;2287;0;0;0;0;4;0;3200;0;0;0;0;5;0;8160;2;0;0;0;0;0;6;0;5886;2;0;0;0;0;0;7;0;4125;0;0;0;0;8;0;4114;0;0;0;0;9;0;2213;0;0;0;0
23.01.19;20:10:00;1;1269;10202;0;2;0;3725;0;0;0;0;3;0;2287;0;0;0;0;4;0;3200;0;0;0;0;5;0;8160;2;0;0;0;0;0;6;0;5886;2;0;0;0;0;0;7;0;4125;0;0;0;0;8;0;4114;0;0;0;0;9;0;2213;0;0;0;0
23.01.19;20:05:00;1;868;10114;0;2;0;3725;0;0;0;0;3;0;2287;0;0;0;0;4;0;3200;0;0;0;0;5;0;8160;2;0;0;0;0;0;6;0;5886;2;0;0;0;0;0;7;0;4125;0;0;0;0;8;0;4114;0;0;0;0;9;0;2213;0;0;0;0
23.01.19;20:00:00;1;724;10047;0;2;0;3725;0;0;0;0;3;0;2287;0;0;0;0;4;0;3200;0;0;0;0;5;0;8160;2;0;0;0;0;0;6;0;5886;2;0;0;0;0;0;7;0;4125;0;0;0;0;8;0;4114;0;0;0;0;9;0;2213;0;0;0;0
23.01.19;19:55:00;1;723;9986;0;2;0;3725;0;0;0;0;3;0;2287;0;0;0;0;4;0;3200;0;0;0;0;5;0;8160;2;0;0;0;0;0;6;0;5886;2;0;0;0;0;0;7;0;4125;0;0;0;0;8;0;4114;0;0;0;0;9;0;2213;0;0;0;0
23.01.19;19:50:00;1;857;9925;0;2;0;3725;0;0;0;0;3;0;2287;0;0;0;0;4;0;3200;0;0;0;0;5;0;8160;2;0;0;0;0;0;6;0;5886;2;0;0;0;0;0;7;0;4125;0;0;0;0;8;0;4114;0;0;0;0;9;0;2213;0;0;0;0
23.01.19;19:45:00;1;612;9845;0;2;0;3725;0;0;0;0;3;0;2287;0;0;0;0;4;0;3200;0;0;0;0;5;0;8160;2;0;0;0;0;0;6;0;5886;2;0;0;0;0;0;7;0;4125;0;0;0;0;8;0;4114;0;0;0;0;9;0;2213;0;0;0;0
23.01.19;19:40:00;1;473;9794;0;2;0;3725;0;0;0;0;3;0;2287;0;0;0;0;4;0;3200;0;0;0;0;5;0;8160;2;0;0;0;0;0;6;0;5886;2;0;0;0;0;0;7;0;4125;0;0;0;0;8;0;4114;0;0;0;0;9;0;2213;0;0;0;0
23.01.19;19:35:00;1;407;9754;0;2;0;3725;0;0;0;0;3;0;2287;0;0;0;0;4;0;3200;0;0;0;0;5;0;8160;2;0;0;0;0;0;6;0;5886;2;0;0;0;0;0;7;0;4125;0;0;0;0;8;0;4114;0;0;0;0;9;0;2213;0;0;0;0
23.01.19;19:30:00;1;378;9718;0;2;0;3725;0;0;0;0;3;0;2287;0;0;0;0;4;0;3200;0;0;0;0;5;0;8160;2;0;0;0;0;0;6;0;5886;2;0;0;0;0;0;7;0;4125;0;0;0;0;8;0;4114;0;0;0;0;9;0;2213;0;0;0;0
23.01.19;19:25:00;1;631;9640;0;2;0;3725;0;0;0;0;3;0;2287;0;0;0;0;4;0;3200;0;0;0;0;5;0;8160;2;0;0;0;0;0;6;0;5886;2;0;0;0;0;0;7;0;4125;0;0;0;0;8;0;4114;0;0;0;0;9;0;2213;0;0;0;0
23.01.19;19:20:00;1;218;9602;0;2;0;3725;0;0;0;0;3;0;2287;0;0;0;0;4;0;3200;0;0;0;0;5;0;8160;2;0;0;0;0;0;6;0;5886;2;0;0;0;0;0;7;0;4125;0;0;0;0;8;0;4114;0;0;0;0;9;0;2213;0;0;0;0
23.01.19;19:15:00;1;217;9583;0;2;0;3725;0;0;0;0;3;0;2287;0;0;0;0;4;0;3200;0;0;0;0;5;0;8160;2;0;0;0;0;0;6;0;5886;2;0;0;0;0;0;7;0;4125;0;0;0;0;8;0;4114;0;0;0;0;9;0;2213;0;0;0;0
23.01.19;19:10:00;1;218;9565;0;2;0;3725;0;0;0;0;3;0;2287;0;0;0;0;4;0;3200;0;0;0;0;5;0;8160;2;0;0;0;0;0;6;0;5886;2;0;0;0;0;0;7;0;4125;0;0;0;0;8;0;4114;0;0;0;0;9;0;2213;0;0;0;0
23.01.19;19:05:00;1;631;9547;0;2;0;3725;0;0;0;0;3;0;2287;0;0;0;0;4;0;3200;0;0;0;0;5;0;8160;2;0;0;0;0;0;6;0;5886;2;0;0;0;0;0;7;0;4125;0;0;0;0;8;0;4114;0;0;0;0;9;0;2213;0;0;0;0
23.01.19;19:00:00;1;218;9504;0;2;0;3725;0;0;0;0;3;0;2287;0;0;0;0;4;0;3200;0;0;0;0;5;0;8160;2;0;0;0;0;0;6;0;5886;2;0;0;0;0;0;7;0;4125;0;0;0;0;8;0;4114;0;0;0;0;9;0;2213;0;0;0;0
23.01.19;18:55:00;1;223;9485;0;2;0;3725;0;0;0;0;3;0;2287;0;0;0;0;4;0;3200;0;0;0;0;5;0;8160;2;0;0;0;0;0;6;0;5886;2;0;0;0;0;0;7;0;4125;0;0;0;0;8;0;4114;0;0;0;0;9;0;2213;0;0;0;0
23.01.19;18:50:00;1;254;9466;0;2;0;3725;0;0;0;0;3;0;2287;0;0;0;0;4;0;3200;0;0;0;0;5;0;8160;2;0;0;0;0;0;6;0;5886;2;0;0;0;0;0;7;0;4125;0;0;0;0;8;0;4114;0;0;0;0;9;0;2213;0;0;0;0
23.01.19;18:45:00;1;616;9445;0;2;0;3725;0;0;0;0;3;0;2287;0;0;0;0;4;0;3200;0;0;0;0;5;0;8160;2;0;0;0;0;0;6;0;5886;2;0;0;0;0;0;7;0;4125;0;0;0;0;8;0;4114;0;0;0;0;9;0;2213;0;0;0;0
23.01.19;18:40:00;1;405;9393;0;2;0;3725;0;0;0;0;3;0;2287;0;0;0;0;4;0;3200;0;0;0;0;5;0;8160;2;0;0;0;0;0;6;0;5886;2;0;0;0;0;0;7;0;4125;0;0;0;0;8;0;4114;0;0;0;0;9;0;2213;0;0;0;0
23.01.19;18:35:00;1;320;9361;0;2;0;3725;0;0;0;0;3;0;2287;0;0;0;0;4;0;3200;0;0;0;0;5;0;8160;2;0;0;0;0;0;6;0;5886;2;0;0;0;0;0;7;0;4125;0;0;0;0;8;0;4114;0;0;0;0;9;0;2213;0;0;0;0
23.01.19;18:30:00;1;357;9334;0;2;0;3725;0;0;0;0;3;0;2287;0;0;0;0;4;0;3200;0;0;0;0;5;0;8160;2;0;0;0;0;0;6;0;5886;2;0;0;0;0;0;7;0;4125;0;0;0;0;8;0;4114;0;0;0;0;9;0;2213;0;0;0;0
23.01.19;18:25:00;1;298;9304;0;2;0;3725;0;0;0;0;3;0;2287;0;0;0;0;4;0;3200;0;0;0;0;5;0;8160;2;0;0;0;0;0;6;0;5886;2;0;0;0;0;0;7;0;4125;0;0;0;0;8;0;4114;0;0;0;0;9;0;2213;0;0;0;0
23.01.19;18:20:00;1;484;9261;0;2;0;3725;0;0;0;0;3;0;2287;0;0;0;0;4;0;3200;0;0;0;0;5;0;8160;2;0;0;0;0;0;6;0;5886;2;0;0;0;0;0;7;0;4125;0;0;0;0;8;0;4114;0;0;0;0;9;0;2213;0;0;0;0
23.01.19;18:15:00;1;347;9233;0;2;0;3725;0;0;0;0;3;0;2287;0;0;0;0;4;0;3200;0;0;0;0;5;0;8160;2;0;0;0;0;0;6;0;5886;2;0;0;0;0;0;7;0;4125;0;0;0;0;8;0;4114;0;0;0;0;9;0;2213;0;0;0;0
23.01.19;18:10:00;1;295;9205;0;2;0;3725;0;0;0;0;3;0;2287;0;0;0;0;4;0;3200;0;0;0;0;5;0;8160;2;0;0;0;0;0;6;0;5886;2;0;0;0;0;0;7;0;4125;0;0;0;0;8;0;4114;0;0;0;0;9;0;2213;0;0;0;0
23.01.19;18:05:00;1;294;9181;0;2;0;3725;0;0;0;0;3;0;2287;0;0;0;0;4;0;3200;0;0;0;0;5;0;8160;2;0;0;0;0;0;6;0;5886;2;0;0;0;0;0;7;0;4125;0;0;0;0;8;0;4114;0;0;0;0;9;0;2213;0;0;0;0
23.01.19;18:00:00;1;667;9156;0;2;0;3725;0;0;0;0;3;0;2287;0;0;0;0;4;0;3200;0;0;0;0;5;0;8160;2;0;0;0;0;0;6;0;5886;2;0;0;0;0;0;7;0;4125;0;0;0;0;8;0;4114;0;0;0;0;9;0;2213;0;0;0;0
23.01.19;17:55:00;1;294;9106;0;2;0;3725;0;0;0;0;3;0;2287;0;0;0;0;4;0;3200;0;0;0;0;5;0;8160;2;0;0;0;0;0;6;0;5886;2;0;0;0;0;0;7;0;4125;0;0;0;0;8;0;4114;0;0;0;0;9;0;2213;0;0;0;0
23.01.19;17:50:00;1;293;9082;0;2;0;3725;0;0;0;0;3;0;2287;0;0;0;0;4;0;3200;0;0;0;0;5;0;8160;2;0;0;0;0;0;6;0;5886;2;0;0;0;0;0;7;0;4125;0;0;0;0;8;0;4114;0;0;0;0;9;0;2213;0;0;0;0
23.01.19;17:45:00;1;298;9057;0;2;0;3725;0;0;0;0;3;0;2287;0;0;0;0;4;0;3200;0;0;0;0;5;0;8160;2;0;0;0;0;0;6;0;5886;2;0;0;0;0;0;7;0;4125;0;0;0;0;8;0;4114;0;0;0;0;9;0;2213;0;0;0;0
23.01.19;17:40:00;1;470;9032;0;2;0;3725;0;0;0;0;3;0;2287;0;0;0;0;4;0;3200;0;0;0;0;5;0;8160;2;0;0;0;0;0;6;0;5886;2;0;0;0;0;0;7;0;4125;0;0;0;0;8;0;4114;0;0;0;0;9;0;2213;0;0;0;0
23.01.19;17:35:00;1;301;8984;0;2;0;3725;0;0;0;0;3;0;2287;0;0;0;0;4;0;3200;0;0;0;0;5;0;8160;2;0;0;0;0;0;6;0;5886;2;0;0;0;0;0;7;0;4125;0;0;0;0;8;0;4114;0;0;0;0;9;0;2213;0;0;0;0
23.01.19;17:30:00;1;301;8958;0;2;0;3725;0;0;0;0;3;0;2287;0;0;0;0;4;0;3200;0;0;0;0;5;0;8160;2;0;0;0;0;0;6;0;5886;2;0;0;0;0;0;7;0;4125;0;0;0;0;8;0;4114;0;0;0;0;9;0;2213;0;0;0;0
23.01.19;17:25:00;1;281;8933;0;2;0;3725;0;0;0;0;3;0;2287;0;0;0;0;4;0;3200;0;0;0;0;5;0;8160;2;0;0;0;0;0;6;0;5886;2;0;0;0;0;0;7;0;4125;0;0;0;0;8;0;4114;0;0;0;0;9;0;2213;0;0;0;0
23.01.19;17:20:00;1;1301;8902;0;2;0;3725;0;0;0;0;3;0;2287;0;0;0;0;4;0;3200;0;0;0;0;5;0;8160;2;0;0;0;0;0;6;0;5886;2;0;0;0;0;0;7;0;4125;0;0;0;0;8;0;4114;0;0;0;0;9;0;2213;0;0;0;0
23.01.19;17:15:00;1;1337;8801;0;2;0;3725;0;0;0;0;3;0;2287;0;0;0;0;4;0;3200;0;0;0;0;5;0;8160;2;0;0;0;0;0;6;0;5886;2;0;0;0;0;0;7;0;4125;0;0;0;0;8;0;4114;0;0;0;0;9;0;2213;0;0;0;0
23.01.19;17:10:00;1;400;8708;0;2;0;3725;0;0;0;0;3;0;2287;0;0;0;0;4;0;3200;0;0;0;0;5;0;8160;2;0;0;0;0;0;6;0;5886;2;0;0;0;0;0;7;0;4125;0;0;0;0;8;0;4114;0;0;0;0;9;0;2213;0;0;0;0
23.01.19;17:05:00;1;389;8670;0;2;0;3725;0;0;41;1;3;0;2287;0;0;177;6;4;0;3200;0;0;0;0;5;0;8160;2;0;0;0;0;0;6;0;5886;2;0;0;0;0;0;7;0;4125;0;0;0;0;8;0;4114;0;0;0;0;9;0;2213;0;0;0;0
23.01.19;17:00:00;1;274;8638;0;2;0;3725;6;0;274;6;3;0;2287;6;0;297;10;4;0;3200;0;0;0;0;5;0;8160;2;0;0;0;0;0;6;0;5886;0;0;0;0;0;0;7;0;4125;0;0;0;0;8;0;4114;0;0;0;0;9;0;2213;0;0;0;0
23.01.19;16:55:00;1;288;8615;0;2;0;3725;6;0;300;6;3;0;2287;6;0;336;10;4;0;3200;0;0;23;1;5;0;8160;2;0;0;0;0;0;6;0;5886;1;0;0;0;0;0;7;0;4125;0;0;0;0;8;0;4114;0;0;0;0;9;0;2213;0;0;0;0
23.01.19;16:50:00;1;464;8591;0;2;0;3725;6;0;327;6;3;0;2287;6;0;392;10;4;0;3200;2;0;85;3;5;0;8160;2;0;6;130;128;10;6;0;5886;2;0;0;0;0;1;7;0;4125;0;0;0;0;8;0;4114;0;0;0;0;9;0;2213;0;0;0;0
23.01.19;16:45:00;1;258;8544;0;2;0;3725;6;0;349;6;3;0;2287;4;0;418;10;4;0;3200;1;0;106;3;5;0;8160;1;0;4;317;340;15;6;0;5886;2;6;4;160;346;14;7;0;4125;0;0;0;0;8;0;4114;0;0;0;0;9;0;2213;0;0;84;1
23.01.19;16:40:00;1;291;8523;0;2;0;3725;6;0;369;6;3;0;2287;3;2;420;10;4;0;3200;1;0;131;3;5;0;8160;23;0;0;397;424;16;6;0;5886;23;4;4;181;515;14;7;0;4125;0;0;223;6;8;0;4114;0;0;224;6;9;0;2213;6;0;289;5
23.01.19;16:35:00;1;291;8498;0;2;0;3725;6;0;383;6;3;0;2287;6;4;432;10;4;0;3200;1;0;155;3;5;0;8160;23;0;1;414;446;16;6;0;5886;23;5;5;181;548;14;7;0;4125;6;0;306;8;8;0;4114;6;0;308;8;9;0;2213;6;0;325;5
23.01.19;16:30:00;1;556;8474;0;2;0;3725;6;0;395;6;3;0;2287;6;1;480;10;4;0;3200;1;0;179;4;5;6;8160;26;1;2;418;622;16;6;0;5886;23;5;5;182;568;15;7;0;4125;6;0;352;8;8;0;4114;6;0;355;8;9;0;2213;6;0;378;5
23.01.19;16:25:00;1;311;8418;0;2;0;3725;6;0;403;6;3;0;2287;6;3;486;10;4;0;3200;1;0;197;4;5;0;8159;26;0;0;434;678;17;6;0;5886;23;4;4;182;582;15;7;0;4125;6;0;389;9;8;0;4114;6;0;393;8;9;0;2213;6;0;395;6
23.01.19;16:20:00;1;477;8397;0;2;0;3725;6;0;408;6;3;2;2287;6;6;472;10;4;0;3200;1;0;208;4;5;13;8158;4;1;2;425;663;17;6;0;5886;23;5;4;379;590;15;7;0;4125;6;0;399;9;8;0;4114;6;0;414;8;9;0;2213;6;0;435;6
23.01.19;16:15:00;1;282;8352;0;2;2;3725;6;5;403;7;3;0;2286;6;0;528;10;4;0;3200;1;0;222;5;5;4;8157;4;0;1;440;695;17;6;0;5886;1;12;9;463;596;16;7;0;4125;6;0;415;9;8;0;4114;4;0;423;8;9;0;2213;6;0;468;6
23.01.19;16:10:00;1;346;8327;0;2;2;3725;6;9;402;7;3;3;2286;4;8;494;10;4;0;3200;3;0;217;5;5;76;8156;4;16;15;394;629;18;6;0;5886;8;7;2;407;605;16;7;1;4125;6;1;434;9;8;0;4114;3;3;427;9;9;0;2213;3;1;469;6
23.01.19;16:05:00;1;643;8298;0;2;0;3725;6;0;431;7;3;1;2286;6;6;522;10;4;0;3200;3;0;218;5;5;86;8150;4;29;25;394;629;18;6;0;5886;8;6;4;574;612;17;7;1;4125;6;2;459;9;8;1;4114;6;2;461;9;9;0;2213;6;2;499;6
23.01.19;16:00:00;1;297;8244;0;2;9;3725;4;17;411;7;3;1;2286;6;6;533;10;4;0;3200;3;0;217;5;5;110;8142;4;42;37;394;629;18;6;61;5886;4;48;32;467;263;18;7;2;4125;6;4;479;10;8;1;4114;6;4;480;9;9;1;2213;6;3;529;6
23.01.19;15:55:00;1;844;8219;0;2;8;3724;6;13;426;7;3;2;2286;6;8;538;10;4;2;3200;3;2;200;5;5;127;8133;4;52;47;394;629;18;6;65;5881;4;40;24;467;263;18;7;0;4125;6;5;484;10;8;7;4114;6;13;455;9;9;0;2213;6;4;536;6
23.01.19;15:50:00;1;270;8172;0;2;53;3723;4;81;373;8;3;3;2286;6;8;549;10;4;16;3200;3;17;199;5;5;155;8122;4;64;54;394;629;18;6;79;5876;4;31;19;467;263;18;7;8;4125;4;16;466;10;8;3;4113;6;7;500;10;9;4;2213;6;9;524;6
23.01.19;15:45:00;1;256;8149;0;2;71;3719;4;101;379;8;3;0;2285;6;0;582;11;4;24;3199;3;26;198;6;5;189;8109;4;86;55;394;629;18;6;96;5869;4;54;36;467;263;18;7;43;4124;4;70;401;10;8;46;4113;4;72;387;10;9;0;2212;6;0;587;6
23.01.19;15:40:00;1;513;8119;0;2;87;3713;4;114;376;8;3;14;2285;4;24;534;11;4;33;3197;3;34;198;6;5;213;8094;4;106;88;394;629;18;6;111;5861;4;66;44;467;263;18;7;57;4120;4;88;435;10;8;48;4109;4;87;430;10;9;9;2212;4;16;542;7
23.01.19;15:35:00;1;406;8078;0;2;95;3706;4;124;370;8;3;10;2284;6;16;558;11;4;45;3194;3;46;198;6;5;224;8076;4;113;85;394;629;18;6;115;5851;4;69;46;467;263;18;7;69;4116;4;105;446;10;8;45;4105;4;87;483;10;9;7;2211;6;12;567;7
23.01.19;15:30:00;1;738;8044;0;2;107;3698;4;136;368;8;3;29;2283;6;46;527;11;4;54;3190;3;56;198;6;5;249;8057;4;120;95;394;629;18;6;130;5841;4;98;59;467;263;18;7;79;4110;4;110;423;10;8;66;4101;4;106;462;10;9;5;2211;6;10;571;7
23.01.19;15:25:00;1;212;7997;0;2;132;3689;4;161;387;8;3;71;2281;4;106;458;11;4;77;3186;3;81;199;6;5;294;8036;4;144;128;394;629;19;6;149;5831;4;78;47;467;263;18;7;115;4103;4;143;423;10;8;111;4096;4;146;436;10;9;12;2210;6;16;576;7
23.01.19;15:20:00;1;447;7979;0;2;141;3678;4;174;390;8;3;79;2275;4;116;489;11;4;92;3179;3;96;210;6;5;327;8011;4;163;137;394;629;19;6;169;5818;4;135;80;467;263;18;7;132;4093;4;170;454;10;8;123;4087;4;168;474;10;9;59;2209;6;83;515;7
23.01.19;15:15:00;1;211;7937;0;2;151;3666;4;183;397;8;3;85;2268;4;121;506;12;4;103;3172;5;108;227;6;5;341;7984;4;173;150;394;629;19;6;177;5804;4;83;53;467;263;18;7;133;4082;4;174;469;10;8;138;4076;4;174;460;10;9;62;2205;4;81;510;7
23.01.19;15:10:00;1;212;7919;0;2;141;3654;4;173;398;8;3;79;2261;4;118;493;12;4;95;3163;3;98;209;6;5;327;7955;4;164;138;394;629;19;6;166;5789;4;105;66;467;263;18;7;126;4071;4;164;456;11;8;125;4065;4;164;442;10;9;47;2200;6;62;522;7
23.01.19;15:05:00;1;497;7901;0;2;144;3642;4;176;395;9;3;81;2255;4;120;503;12;4;103;3155;5;107;224;6;5;334;7928;4;170;143;394;629;19;6;176;5775;4;151;92;467;263;18;7;132;4061;4;164;439;11;8;124;4054;4;160;427;10;9;42;2196;4;56;518;7
23.01.19;15:00:00;1;212;7858;0;2;163;3630;4;196;399;9;3;92;2248;4;132;495;12;4;116;3147;5;121;236;6;5;363;7900;4;179;155;404;629;19;6;215;5761;4;117;109;467;389;18;7;143;4050;4;171;429;11;8;142;4044;4;174;446;10;9;69;2193;6;87;526;8
23.01.19;14:55:00;1;532;7840;0;2;231;3617;4;264;400;9;3;136;2240;4;175;511;12;4;175;3137;5;182;235;6;5;478;7869;4;241;204;408;666;19;6;355;5742;4;158;169;576;573;18;7;199;4038;4;240;460;11;8;197;4032;4;236;442;10;9;105;2187;4;136;515;8
23.01.19;14:50:00;1;212;7797;0;2;298;3598;4;336;408;9;3;183;2229;4;223;531;12;4;247;3122;5;257;239;6;5;629;7828;4;314;265;422;702;19;6;477;5711;4;239;248;602;576;18;7;291;4021;4;325;483;11;8;280;4016;4;322;486;10;9;151;2179;4;181;554;8
23.01.19;14:45:00;1;211;7779;0;2;303;3573;4;340;418;9;3;184;2214;4;226;539;12;4;256;3102;5;267;241;6;5;673;7775;4;328;280;424;691;19;6;500;5671;4;251;265;607;587;18;7;297;3997;4;333;498;11;8;293;3993;4;336;494;10;9;164;2166;4;193;539;8
23.01.19;14:40:00;1;484;7760;0;2;313;3547;4;352;415;9;3;191;2198;4;231;535;12;4;264;3081;5;275;240;7;5;690;7719;4;335;291;425;701;19;6;510;5629;4;268;283;606;581;18;7;297;3972;4;352;483;11;8;301;3968;4;349;488;10;9;167;2153;4;201;541;8
23.01.19;14:35:00;1;272;7715;0;2;320;3521;4;358;406;9;3;200;2182;4;239;530;12;4;271;3058;5;282;242;7;5;710;7662;4;355;306;419;708;19;6;531;5587;4;266;278;606;582;18;7;326;3948;4;360;499;11;8;314;3943;4;361;494;11;9;182;2139;4;207;531;8
23.01.19;14:30:00;1;744;7693;0;2;312;3495;4;351;416;9;3;190;2166;4;233;530;12;4;262;3036;5;273;240;7;5;679;7603;4;336;293;416;702;19;6;516;5543;4;251;264;612;583;18;7;308;3921;4;352;483;11;8;310;3917;4;354;482;11;9;176;2123;4;200;541;8
23.01.19;14:25:00;1;211;7646;0;2;310;3469;4;350;400;9;3;193;2150;4;233;539;12;4;264;3014;5;275;243;7;5;666;7546;4;340;288;406;702;19;6;514;5500;4;268;273;608;589;18;7;307;3895;4;352;496;11;8;316;3891;4;355;486;11;9;168;2109;4;201;535;8
23.01.19;14:20:00;1;246;7628;0;2;315;3443;4;353;411;10;3;191;2134;4;233;534;12;4;263;2992;5;274;245;7;5;680;7489;4;328;290;413;705;19;6;514;5457;4;266;278;607;583;18;7;324;3869;4;361;490;11;8;313;3865;4;360;497;11;9;175;2094;4;204;546;9
23.01.19;14:15:00;1;497;7591;0;2;323;3416;4;362;413;10;3;198;2118;4;243;511;12;4;273;2970;5;284;237;7;5;690;7432;4;345;293;427;701;19;6;511;5414;4;246;252;608;583;18;7;333;3842;4;363;501;11;8;328;3839;4;366;495;11;9;187;2080;4;212;533;9
23.01.19;14:10:00;1;211;7567;0;2;361;3390;4;401;421;10;3;222;2101;4;264;515;13;4;298;2947;5;310;243;7;5;746;7375;4;365;316;421;722;19;6;561;5371;4;319;321;614;584;18;7;367;3815;4;407;486;11;8;365;3811;4;407;482;11;9;203;2064;4;228;532;9
23.01.19;14:05:00;1;521;7549;0;2;426;3360;4;469;422;10;3;262;2083;4;309;529;13;4;363;2923;5;378;244;7;5;866;7312;4;435;369;434;722;19;6;646;5324;4;331;340;620;593;18;7;434;3784;4;478;487;11;8;433;3781;4;471;481;11;9;237;2047;4;267;537;9
23.01.19;14:00:00;1;270;7504;0;2;531;3324;4;579;425;10;3;330;2061;4;380;535;13;4;459;2893;5;478;252;7;5;1075;7239;4;544;456;436;729;19;6;804;5269;4;414;422;621;596;18;7;551;3748;4;593;483;11;8;538;3745;4;585;478;11;9;293;2028;4;332;551;9
23.01.19;13:55:00;1;270;7481;0;2;610;3280;4;661;430;11;3;383;2034;4;435;534;13;4;537;2855;5;559;249;8;5;1248;7150;4;648;537;446;726;19;6;947;5201;4;484;490;622;601;18;7;645;3702;4;691;488;11;8;634;3700;4;692;499;11;9;350;2003;4;388;548;9
23.01.19;13:50:00;1;513;7448;0;2;605;3230;4;654;430;11;3;381;2002;4;434;534;13;4;540;2810;5;562;250;8;5;1264;7046;4;651;552;436;731;19;6;965;5122;4;480;483;625;594;18;7;651;3649;4;697;495;12;8;635;3648;4;688;508;11;9;348;1974;4;389;551;9
23.01.19;13:45:00;1;273;7411;0;2;582;3179;4;631;429;11;3;359;1970;4;412;519;13;4;515;2765;5;536;246;8;5;1218;6941;4;619;521;439;715;19;6;917;5042;4;503;496;623;599;18;7;609;3595;4;658;491;12;8;602;3595;4;664;497;11;9;334;1945;4;370;558;9